sat.trackr.live / text

‹ back to catalog

STARLINK-34698

NORAD 66445 · 2025-259Z

PAYLOAD ACTIVE UNKNOWN

§ Identity

Operator
Country
US
Launch date
2025-11-11
Launch site
AFETR
Launch vehicle
Mass (kg)
RCS (m²)

Purposes: comms

External: N2YO · Heavens-Above · Gunter

§ Orbital elements

Epoch: 2026-09-20T23:23:16.541664Z

Period
94.27 min
Inclination
43.0004°
Eccentricity
0.0001198
Mean motion
15.27581494 rev/d
Perigee alt
482.2 km
Apogee alt
483.9 km
Semi-major
6,861.2 km
B*
3.1488e-4
RAAN
251.8168°
Arg perigee
252.1289°
Mean anomaly
107.9432°
Rev number
4,924

§ Raw data

STARLINK-346981 66445U 25259Z   26263.97449701  .00008413  00000+0  31488-3 0  99902 66445  43.0004 251.8168 0001198 252.1289 107.9432 15.27581494 49248

JSON: /api/v1/satellites/66445 · /tle

For live sub-satellite position, see the globe view (requires WebGL).

§ Visibility from observer

Set your observer location to see the next 7 days of passes ≥ 10°. The values pass through the URL so the page stays shareable.

No JS? Fill the form by hand. The geolocation button needs JavaScript.